Regional Weather Roundup
Issued by NWS Sterling, VA

Home | Current Version | Previous Version | Graphics & Text | Print | Product List | Glossary On
Versions: 1 2 3 4 5 6 7 8 9 10 11 12 13 14 15 16 17 18 19 20 21 22 23 24 25 26 27 28 29 30 31 32 33 34 35 36 37 38 39 40 41 42 43 44 45 46 47 48 49 50
912
ASUS41 KLWX 281410
RWRLWX

REGIONAL WEATHER ROUNDUP
NATIONAL WEATHER SERVICE BALTIMORE MD/WASHINGTON DC
1000 AM EDT SUN AUG 28 2016

Note: "FAIR" indicates few or no clouds below 12,000 feet
with no significant weather and/or obstructions to visibility.
 TC=TEMPERATURE CELSIUS

 * =Non NWS site. Station does not report precipitation (e.g. rain,
    snow, etc.), thunder, or fog.

DCZ001-MDZ009-015-VAZ040>042-051-053>054-281500-
WASHINGTON METRO

CITY           SKY/WX    TMP DP  RH WIND       PRES   REMARKS
WASHINGTON NAT MOSUNNY   80  72  76 NE6       30.26S
DULLES         MOSUNNY   80  69  69 CALM      30.26R
ANDREWS AFB    MOSUNNY   77  71  81 E5        30.25S
FT BELVOIR     MOSUNNY   79  70  74 VRB3      30.25R
COLLEGE PARK*  MOSUNNY   77  70  78 E3        30.25S
LEESBURG*      PTSUNNY   79  73  83 CALM      30.28R
GAITHERSBURG*  MOSUNNY   75  70  83 E3        30.31R

$$

MDZ006>007-011-014-281500-
BALTIMORE METRO

CITY           SKY/WX    TMP DP  RH WIND       PRES   REMARKS
BWI AIRPORT    MOSUNNY   79  70  74 E7        30.25S
MD SCIENCE CTR   N/A     80  69  69 MISG      30.26S
MARTIN STATE   PTSUNNY   79  75  89 NE5       30.27F
ANNAPOLIS      MOSUNNY   79  72  79 E7        30.25S
FORT MEADE*    MOSUNNY  N/A N/A N/A NE3       30.28S

$$

MDZ012-015-019>023-281500-
MARYLAND EASTERN SHORE

CITY           SKY/WX    TMP DP  RH WIND       PRES   REMARKS
OCEAN CITY     SUNNY     82  69  64 NE9       30.23S
SALISBURY      SUNNY     79  71  76 E7        30.23S
BAY BRIDGE AP* MOSUNNY   79  72  78 E8        30.25F
CAMBRIDGE*     MOSUNNY   77  70  78 NE6       30.25R
EASTON*        SUNNY     81  75  83 E7        30.29

$$

MDZ017>025-281500-
SOUTHERN MARYLAND

CITY           SKY/WX    TMP DP  RH WIND       PRES   REMARKS
PATUXENT RIVER PTSUNNY   77  70  79 E7        30.24S
ST INIGOES     MOSUNNY   78  71  79 NE8       30.23S
LEONARDTOWN*   PTSUNNY   77  68  73 E6        30.26S

$$

MDZ003>005-281500-
NORTH CENTRAL MARYLAND

CITY           SKY/WX    TMP DP  RH WIND       PRES   REMARKS
FREDERICK*     CLOUDY    73  73 100 CALM      30.30
HAGERSTOWN APT SUNNY     80  66  62 VRB7      30.27R

$$

MDZ501>502-281500-
WESTERN MARYLAND

CITY           SKY/WX    TMP DP  RH WIND       PRES   REMARKS
OAKLAND*       SUNNY     73  68  83 SE3       30.34F
CUMBERLAND*    SUNNY     79  68  69 CALM      30.30R

$$

VAZ025>031-281500-
SHENANDOAH VALLEY

CITY           SKY/WX    TMP DP  RH WIND       PRES   REMARKS
WINCHESTER*    SUNNY     79  68  69 CALM      30.27R
FRONT ROYAL*   FAIR      77  70  78 CALM      30.26S
LURAY*         FAIR      79  68  69 CALM      30.27S
NEW MARKET*    CLOUDY   N/A N/A N/A CALM      30.27S
STAUNTON*      SUNNY     76  67  73 CALM      30.31S
WAYNESBORO*    FAIR      76  66  70 CALM      30.30S

$$

WVZ021-048>050-054>055-281500-
EASTERN WEST VIRGINIA PANHANDLE

CITY           SKY/WX    TMP DP  RH WIND       PRES   REMARKS
MARTINSBURG    SUNNY     77  69  76 VRB3      30.26S
PETERSBURG*    SUNNY     78  71  79 CALM      30.27S

$$

VAZ036>039-050-281500-
CENTRAL FOOTHILLS

CITY           SKY/WX    TMP DP  RH WIND       PRES   REMARKS
CHARLOTTESVILL SUNNY     79  69  71 VRB5      30.27R
CULPEPER*      MOSUNNY   78  72  81 CALM      30.26S
ORANGE*          N/A     77  73  88 CALM      30.28S
GORDONSVILLE*  FAIR      79  72  78 CALM      30.26R
WARRENTON*     FAIR      80  68  66 N3        30.25S

$$

VAZ055>057-281500-
NORTH AND CENTRAL PIEDMONT

CITY           SKY/WX    TMP DP  RH WIND       PRES   REMARKS
FREDERICKSBRG* PTSUNNY   79  74  82 N3        30.24R
STAFFORD*      PTSUNNY   79  71  76 NE5       30.29R

$$

NCZ024-NYZ072-PAZ021-071-VAZ022-071-281500-
OTHER REGIONAL OBSERVATIONS

CITY           SKY/WX    TMP DP  RH WIND       PRES   REMARKS
NEW YORK CITY  SUNNY     79  66  64 CALM      30.30S
PHILADELPHIA   MOSUNNY   80  67  64 CALM      30.27S
PITTSBURGH     PTSUNNY   80  69  69 CALM      30.23S
ROANOKE        MOSUNNY   79  66  64 CALM      30.30S
RICHMOND       PTSUNNY   79  72  79 N9        30.23S
RALEIGH        PTSUNNY   77  71  82 NE8       30.22R

$$

ANZ530>537-281500-
MARINE OBSERVATIONS

STATION/POSITION TIME  TEMP    WIND        PRES
                       AIR SEA DIR/SP/G
                 (UTC) (F)     (DEG/KT/KT) (MB)
THOMAS PT LIGHT  1400   76 83   20/  6/  7 1025.8S
BALT KEY BRIDGE  1348   77      50/  5/  7 1024.5S
COVE POINT       1348   76      80/  5/  7 1024.9R
LEWISETTA        1348   79 83   70/  7/  9 1023.5R
SOLOMONS ISLAND  1342   78 84   80/  9/ 10   N/A
PINEY POINT      1348           70/  4/  6   N/A

$$





USA.gov is the U.S. government's official web portal to all federal, state and local government web resources and services.